| time (UTC) | temp F | wind direction | speed MPH | gust MPH | rain 1hr in | rain 24hr in | rain mn in | humidity % | barometer mb |
| 20260507195713 | 66 | 111 | 7.0 | 0.0 | 0.00 | 0.00 | 0.00 | 75 | 1017.6 |
| 20260507195213 | 66 | 298 | 8.0 | 0.0 | 0.00 | 0.00 | 0.00 | 75 | 1017.9 |
| 20260507194710 | 66 | 247 | 7.0 | 0.0 | 0.00 | 0.00 | 0.00 | 76 | 1018.3 |
| 20260507194210 | 65 | 310 | 9.0 | 0.0 | 0.00 | 0.00 | 0.00 | 76 | 1017.9 |
| 20260507193710 | 65 | 296 | 7.0 | 0.0 | 0.00 | 0.00 | 0.00 | 77 | 1018.3 |
| 20260507193213 | 65 | 329 | 8.0 | 0.0 | 0.00 | 0.00 | 0.00 | 78 | 1018.3 |
| 20260507192713 | 65 | 317 | 7.0 | 0.0 | 0.00 | 0.00 | 0.00 | 77 | 1018.6 |
| 20260507192216 | 65 | 264 | 8.0 | 0.0 | 0.00 | 0.00 | 0.00 | 78 | 1019.0 |
| 20260507191710 | 64 | 290 | 7.0 | 0.0 | 0.00 | 0.00 | 0.00 | 78 | 1018.6 |
| 20260507191214 | 64 | 216 | 6.0 | 0.0 | 0.00 | 0.00 | 0.00 | 78 | 1018.6 |
| 20260507190710 | 64 | 270 | 6.0 | 0.0 | 0.00 | 0.00 | 0.00 | 78 | 1018.6 |
| 20260507190209 | 64 | 284 | 9.0 | 0.0 | 0.00 | 0.00 | 0.00 | 78 | 1018.3 |
| 20260507185711 | 64 | 273 | 7.0 | 0.0 | 0.00 | 0.00 | 0.00 | 79 | 1017.9 |
| 20260507185210 | 64 | 66 | 6.0 | 0.0 | 0.00 | 0.00 | 0.00 | 79 | 1017.9 |
| 20260507184712 | 63 | 298 | 5.0 | 0.0 | 0.00 | 0.00 | 0.00 | 80 | 1017.9 |
| 20260507184211 | 63 | 29 | 7.0 | 0.0 | 0.00 | 0.00 | 0.00 | 82 | 1018.3 |
| 20260507183710 | 63 | 312 | 4.0 | 0.0 | 0.00 | 0.00 | 0.00 | 82 | 1018.3 |
| 20260507183211 | 62 | 157 | 5.0 | 0.0 | 0.00 | 0.00 | 0.00 | 82 | 1019.0 |
| 20260507182714 | 62 | 233 | 5.0 | 0.0 | 0.00 | 0.00 | 0.00 | 82 | 1019.0 |
| 20260507182214 | 62 | 255 | 7.0 | 0.0 | 0.00 | 0.00 | 0.00 | 81 | 1019.3 |
| 20260507181713 | 62 | 57 | 6.0 | 0.0 | 0.00 | 0.00 | 0.00 | 81 | 1019.3 |
| 20260507181210 | 63 | 308 | 6.0 | 0.0 | 0.00 | 0.00 | 0.00 | 81 | 1019.3 |
| 20260507180712 | 63 | 267 | 6.0 | 0.0 | 0.00 | 0.00 | 0.00 | 81 | 1019.6 |
| 20260507180213 | 63 | 274 | 6.0 | 0.0 | 0.00 | 0.00 | 0.00 | 80 | 1019.6 |
| 20260507175711 | 63 | 294 | 5.0 | 0.0 | 0.00 | 0.00 | 0.00 | 80 | 1019.6 |
| 20260507175214 | 63 | 223 | 5.0 | 0.0 | 0.00 | 0.00 | 0.00 | 79 | 1019.6 |
| 20260507174712 | 63 | 158 | 5.0 | 0.0 | 0.00 | 0.00 | 0.00 | 80 | 1019.6 |
| 20260507174212 | 62 | 274 | 7.0 | 0.0 | 0.00 | 0.00 | 0.00 | 80 | 1019.6 |
| 20260507173710 | 62 | 287 | 7.0 | 0.0 | 0.00 | 0.00 | 0.00 | 79 | 1019.6 |
| 20260507173213 | 63 | 269 | 8.0 | 0.0 | 0.00 | 0.00 | 0.00 | 79 | 1019.6 |
| 20260507172813 | 63 | 305 | 7.0 | 0.0 | 0.00 | 0.00 | 0.00 | 78 | 1019.6 |
| 20260507172224 | 63 | 92 | 7.0 | 0.0 | 0.00 | 0.00 | 0.00 | 79 | 1019.3 |
| 20260507171724 | 63 | 70 | 8.0 | 0.0 | 0.00 | 0.00 | 0.00 | 80 | 1019.3 |
| 20260507171225 | 63 | 349 | 6.0 | 0.0 | 0.00 | 0.00 | 0.00 | 79 | 1019.3 |
| 20260507170723 | 63 | 5 | 8.0 | 0.0 | 0.00 | 0.00 | 0.00 | 80 | 1019.3 |
| 20260507170224 | 62 | 279 | 8.0 | 0.0 | 0.00 | 0.00 | 0.00 | 81 | 1019.6 |
| 20260507165723 | 62 | 268 | 7.0 | 0.0 | 0.00 | 0.00 | 0.00 | 82 | 1019.6 |
| 20260507165324 | 61 | 291 | 11.0 | 0.0 | 0.00 | 0.00 | 0.00 | 82 | 1019.6 |
| 20260507164223 | 61 | 265 | 8.0 | 0.0 | 0.00 | 0.00 | 0.00 | 83 | 1019.6 |
| 20260507163724 | 61 | 244 | 10.0 | 0.0 | 0.00 | 0.00 | 0.00 | 83 | 1019.6 |
| 20260507163225 | 60 | 315 | 9.0 | 0.0 | 0.00 | 0.00 | 0.00 | 84 | 1019.6 |
| 20260507162725 | 60 | 283 | 9.0 | 0.0 | 0.00 | 0.00 | 0.00 | 84 | 1019.6 |
| 20260507162222 | 60 | 275 | 7.0 | 0.0 | 0.00 | 0.00 | 0.00 | 84 | 1019.6 |
| 20260507161724 | 60 | 304 | 9.0 | 0.0 | 0.00 | 0.00 | 0.00 | 85 | 1019.3 |
| 20260507161221 | 60 | 282 | 8.0 | 0.0 | 0.00 | 0.00 | 0.00 | 85 | 1019.3 |
| 20260507160720 | 60 | 355 | 7.0 | 0.0 | 0.00 | 0.00 | 0.00 | 85 | 1019.6 |
| 20260507160225 | 60 | 233 | 7.0 | 0.0 | 0.00 | 0.00 | 0.00 | 86 | 1019.6 |
| 20260507155722 | 60 | 321 | 9.0 | 0.0 | 0.00 | 0.00 | 0.00 | 85 | 1019.6 |
| 20260507155220 | 59 | 241 | 10.0 | 0.0 | 0.00 | 0.00 | 0.00 | 85 | 1019.6 |
| 20260507154722 | 59 | 284 | 10.0 | 0.0 | 0.00 | 0.00 | 0.00 | 86 | 1019.3 |
| 20260507154220 | 59 | 279 | 8.0 | 0.0 | 0.00 | 0.00 | 0.00 | 86 | 1019.3 |
| 20260507153721 | 59 | 287 | 9.0 | 0.0 | 0.00 | 0.00 | 0.00 | 86 | 1019.3 |
| 20260507153220 | 59 | 276 | 9.0 | 0.0 | 0.00 | 0.00 | 0.00 | 87 | 1019.3 |
| 20260507152719 | 59 | 258 | 8.0 | 0.0 | 0.00 | 0.00 | 0.00 | 87 | 1019.3 |
| 20260507152219 | 59 | 265 | 10.0 | 0.0 | 0.00 | 0.00 | 0.00 | 87 | 1019.3 |
| 20260507151723 | 59 | 309 | 11.0 | 0.0 | 0.00 | 0.00 | 0.00 | 87 | 1019.3 |
| 20260507151220 | 59 | 318 | 10.0 | 0.0 | 0.00 | 0.00 | 0.00 | 88 | 1019.0 |
| 20260507150719 | 59 | 265 | 10.0 | 0.0 | 0.00 | 0.00 | 0.00 | 88 | 1019.3 |
| 20260507150220 | 59 | 342 | 10.0 | 0.0 | 0.00 | 0.00 | 0.00 | 88 | 1019.3 |
| 20260507145720 | 59 | 215 | 9.0 | 0.0 | 0.00 | 0.00 | 0.00 | 88 | 1019.3 |
| 20260507145218 | 59 | 311 | 10.0 | 0.0 | 0.00 | 0.00 | 0.00 | 88 | 1019.3 |
| 20260507144719 | 59 | 303 | 9.0 | 0.0 | 0.00 | 0.00 | 0.00 | 88 | 1019.0 |
| 20260507144218 | 59 | 300 | 11.0 | 0.0 | 0.00 | 0.00 | 0.00 | 89 | 1019.3 |
| 20260507143718 | 59 | 291 | 11.0 | 0.0 | 0.00 | 0.00 | 0.00 | 89 | 1019.0 |
| 20260507143221 | 59 | 246 | 9.0 | 0.0 | 0.00 | 0.00 | 0.00 | 90 | 1018.6 |
| 20260507142721 | 59 | 304 | 9.0 | 0.0 | 0.00 | 0.00 | 0.00 | 91 | 1019.0 |
| 20260507142219 | 59 | 332 | 10.0 | 0.0 | 0.00 | 0.00 | 0.00 | 91 | 1019.0 |
| 20260507141720 | 59 | 296 | 8.0 | 0.0 | 0.00 | 0.00 | 0.00 | 91 | 1019.0 |
| 20260507141217 | 59 | 275 | 8.0 | 0.0 | 0.00 | 0.00 | 0.00 | 91 | 1019.3 |
| 20260507140717 | 59 | 328 | 9.0 | 0.0 | 0.00 | 0.00 | 0.00 | 91 | 1019.3 |
| 20260507140217 | 59 | 316 | 8.0 | 0.0 | 0.00 | 0.00 | 0.00 | 91 | 1019.0 |
| 20260507135718 | 59 | 327 | 10.0 | 0.0 | 0.00 | 0.00 | 0.00 | 91 | 1019.3 |
| 20260507135216 | 59 | 297 | 8.0 | 0.0 | 0.00 | 0.00 | 0.00 | 91 | 1019.0 |
| 20260507134716 | 59 | 301 | 9.0 | 0.0 | 0.00 | 0.00 | 0.00 | 91 | 1019.3 |
| 20260507134217 | 59 | 251 | 7.0 | 0.0 | 0.00 | 0.00 | 0.00 | 91 | 1019.0 |
| 20260507133718 | 59 | 251 | 8.0 | 0.0 | 0.00 | 0.00 | 0.00 | 90 | 1019.0 |
| 20260507133218 | 60 | 300 | 6.0 | 0.0 | 0.00 | 0.00 | 0.00 | 90 | 1019.0 |
| 20260507132718 | 60 | 311 | 7.0 | 0.0 | 0.00 | 0.00 | 0.00 | 89 | 1019.3 |
| 20260507132216 | 60 | 281 | 7.0 | 0.0 | 0.00 | 0.00 | 0.00 | 88 | 1019.3 |
| 20260507131715 | 60 | 317 | 6.0 | 0.0 | 0.00 | 0.00 | 0.00 | 88 | 1019.3 |
| 20260507131214 | 60 | 219 | 7.0 | 0.0 | 0.00 | 0.00 | 0.00 | 87 | 1019.0 |
| 20260507130715 | 60 | 304 | 8.0 | 0.0 | 0.00 | 0.00 | 0.00 | 87 | 1018.6 |
| 20260507130216 | 60 | 273 | 6.0 | 0.0 | 0.00 | 0.00 | 0.00 | 86 | 1019.0 |
| 20260507125716 | 60 | 290 | 9.0 | 0.0 | 0.00 | 0.00 | 0.00 | 86 | 1018.6 |
| 20260507125214 | 60 | 325 | 8.0 | 0.0 | 0.00 | 0.00 | 0.00 | 85 | 1019.0 |
| 20260507124713 | 61 | 297 | 8.0 | 0.0 | 0.00 | 0.00 | 0.00 | 85 | 1018.6 |
| 20260507124214 | 61 | 306 | 5.0 | 0.0 | 0.00 | 0.00 | 0.00 | 85 | 1018.6 |
| 20260507123716 | 61 | 282 | 9.0 | 0.0 | 0.00 | 0.00 | 0.00 | 85 | 1018.6 |
| 20260507123212 | 61 | 307 | 8.0 | 0.0 | 0.00 | 0.00 | 0.00 | 84 | 1018.6 |
| 20260507122712 | 61 | 312 | 6.0 | 0.0 | 0.00 | 0.00 | 0.00 | 84 | 1018.6 |
| 20260507122213 | 61 | 290 | 6.0 | 0.0 | 0.00 | 0.00 | 0.00 | 84 | 1018.3 |
| 20260507121715 | 61 | 258 | 10.0 | 0.0 | 0.00 | 0.00 | 0.00 | 84 | 1018.3 |
| 20260507121315 | 61 | 1 | 8.0 | 0.0 | 0.00 | 0.00 | 0.00 | 84 | 1017.9 |
| 20260507120213 | 61 | 258 | 10.0 | 0.0 | 0.00 | 0.00 | 0.00 | 83 | 1017.9 |
| 20260507115712 | 61 | 307 | 7.0 | 0.0 | 0.00 | 0.00 | 0.00 | 83 | 1017.9 |
| 20260507115212 | 61 | 312 | 10.0 | 0.0 | 0.00 | 0.00 | 0.00 | 83 | 1017.6 |
| 20260507114714 | 61 | 326 | 7.0 | 0.0 | 0.00 | 0.00 | 0.00 | 83 | 1017.6 |
| 20260507114214 | 61 | 303 | 10.0 | 0.0 | 0.00 | 0.00 | 0.00 | 83 | 1017.9 |
| 20260507113712 | 61 | 296 | 7.0 | 0.0 | 0.00 | 0.00 | 0.00 | 83 | 1017.6 |
| 20260507113211 | 61 | 257 | 8.0 | 0.0 | 0.00 | 0.00 | 0.00 | 83 | 1017.6 |
| 20260507112712 | 62 | 16 | 8.0 | 0.0 | 0.00 | 0.00 | 0.00 | 83 | 1017.6 |
| 20260507112214 | 62 | 246 | 8.0 | 0.0 | 0.00 | 0.00 | 0.00 | 83 | 1017.3 |
| 20260507111712 | 62 | 266 | 8.0 | 0.0 | 0.00 | 0.00 | 0.00 | 83 | 1017.3 |
| 20260507111210 | 62 | 324 | 8.0 | 0.0 | 0.00 | 0.00 | 0.00 | 83 | 1017.3 |
| 20260507110713 | 62 | 302 | 7.0 | 0.0 | 0.00 | 0.00 | 0.00 | 83 | 1017.3 |
| 20260507110211 | 62 | 243 | 8.0 | 0.0 | 0.00 | 0.00 | 0.00 | 83 | 1017.3 |
| 20260507105716 | 62 | 334 | 6.0 | 0.0 | 0.00 | 0.00 | 0.00 | 83 | 1016.9 |
| 20260507105213 | 62 | 269 | 9.0 | 0.0 | 0.00 | 0.00 | 0.00 | 83 | 1017.3 |
| 20260507104712 | 62 | 281 | 9.0 | 0.0 | 0.00 | 0.00 | 0.00 | 82 | 1016.9 |
| 20260507104211 | 62 | 315 | 7.0 | 0.0 | 0.00 | 0.00 | 0.00 | 83 | 1017.3 |
| 20260507103713 | 62 | 284 | 9.0 | 0.0 | 0.00 | 0.00 | 0.00 | 83 | 1017.3 |
| 20260507103213 | 62 | 246 | 6.0 | 0.0 | 0.00 | 0.00 | 0.00 | 83 | 1017.3 |
| 20260507102713 | 62 | 211 | 5.0 | 0.0 | 0.00 | 0.00 | 0.00 | 83 | 1017.3 |
| 20260507102312 | 62 | 271 | 7.0 | 0.0 | 0.00 | 0.00 | 0.00 | 83 | 1017.3 |
| 20260507101212 | 62 | 273 | 7.0 | 0.0 | 0.00 | 0.00 | 0.00 | 82 | 1016.9 |
| 20260507100711 | 62 | 327 | 7.0 | 0.0 | 0.00 | 0.00 | 0.00 | 82 | 1016.9 |
| 20260507100211 | 62 | 272 | 6.0 | 0.0 | 0.00 | 0.00 | 0.00 | 83 | 1017.3 |
| 20260507095711 | 62 | 282 | 6.0 | 0.0 | 0.00 | 0.00 | 0.00 | 83 | 1017.3 |
| 20260507095213 | 62 | 274 | 7.0 | 0.0 | 0.00 | 0.00 | 0.00 | 83 | 1016.9 |
| 20260507094710 | 62 | 297 | 6.0 | 0.0 | 0.00 | 0.00 | 0.00 | 82 | 1016.9 |
| 20260507094210 | 62 | 262 | 6.0 | 0.0 | 0.00 | 0.00 | 0.00 | 82 | 1016.9 |
| 20260507093712 | 62 | 252 | 7.0 | 0.0 | 0.00 | 0.00 | 0.00 | 83 | 1017.3 |
| 20260507093211 | 62 | 271 | 7.0 | 0.0 | 0.00 | 0.00 | 0.00 | 83 | 1016.9 |
| 20260507092710 | 62 | 276 | 5.0 | 0.0 | 0.00 | 0.00 | 0.00 | 83 | 1016.9 |
| 20260507092214 | 62 | 11 | 7.0 | 0.0 | 0.00 | 0.00 | 0.00 | 83 | 1016.9 |
| 20260507091712 | 62 | 312 | 5.0 | 0.0 | 0.00 | 0.00 | 0.00 | 83 | 1016.9 |
| 20260507091212 | 62 | 185 | 7.0 | 0.0 | 0.00 | 0.00 | 0.00 | 83 | 1016.9 |
| 20260507090712 | 62 | 251 | 8.0 | 0.0 | 0.00 | 0.00 | 0.00 | 83 | 1016.9 |
| 20260507090213 | 62 | 293 | 6.0 | 0.0 | 0.00 | 0.00 | 0.00 | 83 | 1016.9 |
| 20260507085714 | 62 | 238 | 5.0 | 0.0 | 0.00 | 0.00 | 0.00 | 83 | 1016.9 |
| 20260507085211 | 62 | 262 | 6.0 | 0.0 | 0.00 | 0.00 | 0.00 | 83 | 1016.9 |
| 20260507084714 | 62 | 292 | 8.0 | 0.0 | 0.00 | 0.00 | 0.00 | 83 | 1017.3 |
| 20260507084212 | 62 | 265 | 6.0 | 0.0 | 0.00 | 0.00 | 0.00 | 83 | 1017.3 |
| 20260507083711 | 62 | 277 | 5.0 | 0.0 | 0.00 | 0.00 | 0.00 | 83 | 1016.9 |
| 20260507083213 | 62 | 296 | 6.0 | 0.0 | 0.00 | 0.00 | 0.00 | 83 | 1016.9 |
| 20260507082712 | 62 | 329 | 7.0 | 0.0 | 0.00 | 0.00 | 0.00 | 83 | 1016.9 |
| 20260507082213 | 62 | 261 | 7.0 | 0.0 | 0.00 | 0.00 | 0.00 | 83 | 1017.3 |
| 20260507081711 | 63 | 322 | 6.0 | 0.0 | 0.00 | 0.00 | 0.00 | 83 | 1017.3 |
| 20260507081212 | 62 | 234 | 5.0 | 0.0 | 0.00 | 0.00 | 0.00 | 83 | 1017.3 |
| 20260507080712 | 62 | 249 | 5.0 | 0.0 | 0.00 | 0.00 | 0.00 | 83 | 1017.3 |
| 20260507080213 | 63 | 257 | 5.0 | 0.0 | 0.00 | 0.00 | 0.00 | 83 | 1016.9 |
| 20260507075712 | 62 | 290 | 6.0 | 0.0 | 0.00 | 0.00 | 0.00 | 83 | 1016.9 |
| 20260507075212 | 62 | 254 | 6.0 | 0.0 | 0.00 | 0.00 | 0.00 | 83 | 1016.9 |
| 20260507074714 | 63 | 243 | 4.0 | 0.0 | 0.00 | 0.00 | 0.00 | 83 | 1017.3 |
| 20260507074212 | 63 | 244 | 4.0 | 0.0 | 0.00 | 0.00 | 0.00 | 83 | 1017.3 |
| 20260507073713 | 63 | 287 | 4.0 | 0.0 | 0.00 | 0.00 | 0.00 | 83 | 1017.3 |
| 20260507073211 | 63 | 288 | 3.0 | 0.0 | 0.00 | 0.00 | 0.00 | 83 | 1017.3 |
| 20260507072712 | 63 | 288 | 4.0 | 0.0 | 0.00 | 0.00 | 0.00 | 83 | 1017.3 |
| 20260507072212 | 63 | 258 | 5.0 | 0.0 | 0.00 | 0.00 | 0.00 | 83 | 1017.3 |
| 20260507071711 | 63 | 251 | 6.0 | 0.0 | 0.00 | 0.00 | 0.00 | 83 | 1017.3 |
| 20260507071213 | 63 | 234 | 4.0 | 0.0 | 0.00 | 0.00 | 0.00 | 83 | 1017.3 |
| 20260507070714 | 63 | 287 | 4.0 | 0.0 | 0.00 | 0.00 | 0.00 | 83 | 1017.3 |
| 20260507070212 | 63 | 281 | 5.0 | 0.0 | 0.00 | 0.00 | 0.00 | 83 | 1017.3 |
| 20260507065712 | 63 | 207 | 5.0 | 0.0 | 0.00 | 0.00 | 0.00 | 83 | 1017.3 |
| 20260507065214 | 63 | 292 | 5.0 | 0.0 | 0.00 | 0.00 | 0.00 | 83 | 1016.9 |
| 20260507064713 | 63 | 212 | 4.0 | 0.0 | 0.00 | 0.00 | 0.00 | 83 | 1017.3 |
| 20260507064211 | 63 | 263 | 4.0 | 0.0 | 0.00 | 0.00 | 0.00 | 83 | 1017.3 |
| 20260507063713 | 63 | 249 | 6.0 | 0.0 | 0.00 | 0.00 | 0.00 | 83 | 1017.3 |
| 20260507063209 | 63 | 108 | 3.0 | 0.0 | 0.00 | 0.00 | 0.00 | 83 | 1017.3 |
| 20260507062710 | 63 | 243 | 4.0 | 0.0 | 0.00 | 0.00 | 0.00 | 83 | 1017.3 |
| 20260507062210 | 63 | 247 | 5.0 | 0.0 | 0.00 | 0.00 | 0.00 | 83 | 1017.3 |
| 20260507061711 | 63 | 247 | 6.0 | 0.0 | 0.00 | 0.00 | 0.00 | 83 | 1016.9 |
| 20260507061214 | 63 | 274 | 6.0 | 0.0 | 0.00 | 0.00 | 0.00 | 83 | 1016.9 |
| 20260507060711 | 63 | 268 | 5.0 | 0.0 | 0.00 | 0.00 | 0.00 | 83 | 1016.9 |
| 20260507060211 | 63 | 149 | 6.0 | 0.0 | 0.00 | 0.00 | 0.00 | 83 | 1016.6 |
| 20260507055711 | 63 | 291 | 6.0 | 0.0 | 0.00 | 0.00 | 0.00 | 83 | 1016.9 |
| 20260507055211 | 63 | 345 | 6.0 | 0.0 | 0.00 | 0.00 | 0.00 | 83 | 1016.6 |
| 20260507054710 | 63 | 267 | 6.0 | 0.0 | 0.00 | 0.00 | 0.00 | 83 | 1016.6 |
| 20260507054213 | 63 | 302 | 7.0 | 0.0 | 0.00 | 0.00 | 0.00 | 83 | 1016.6 |
| 20260507053712 | 63 | 248 | 10.0 | 0.0 | 0.00 | 0.00 | 0.00 | 83 | 1016.3 |
| 20260507053213 | 63 | 118 | 7.0 | 0.0 | 0.00 | 0.00 | 0.00 | 83 | 1016.3 |
| 20260507052711 | 63 | 319 | 6.0 | 0.0 | 0.00 | 0.00 | 0.00 | 83 | 1016.3 |
| 20260507052213 | 63 | 230 | 5.0 | 0.0 | 0.00 | 0.00 | 0.00 | 83 | 1016.3 |
| 20260507051713 | 63 | 279 | 7.0 | 0.0 | 0.00 | 0.00 | 0.00 | 83 | 1016.3 |
| 20260507051212 | 64 | 270 | 7.0 | 0.0 | 0.00 | 0.00 | 0.00 | 83 | 1016.3 |
| 20260507050711 | 64 | 215 | 4.0 | 0.0 | 0.00 | 0.00 | 0.00 | 84 | 1016.3 |
| 20260507050211 | 64 | 268 | 5.0 | 0.0 | 0.00 | 0.00 | 0.00 | 83 | 1016.6 |
| 20260507045714 | 64 | 207 | 4.0 | 0.0 | 0.00 | 0.00 | 0.00 | 84 | 1016.3 |
| 20260507045228 | 64 | 271 | 5.0 | 0.0 | 0.00 | 0.00 | 0.00 | 84 | 1016.3 |
| 20260507044728 | 64 | 251 | 4.0 | 0.0 | 0.00 | 0.00 | 0.00 | 84 | 1016.3 |
| 20260507044229 | 64 | 240 | 6.0 | 0.0 | 0.00 | 0.00 | 0.00 | 84 | 1016.6 |
| 20260507043730 | 64 | 285 | 7.0 | 0.0 | 0.00 | 0.00 | 0.00 | 83 | 1016.6 |
| 20260507043229 | 64 | 279 | 7.0 | 0.0 | 0.00 | 0.00 | 0.00 | 83 | 1016.6 |
| 20260507042728 | 64 | 285 | 6.0 | 0.0 | 0.00 | 0.00 | 0.00 | 83 | 1016.6 |
| 20260507042227 | 64 | 274 | 6.0 | 0.0 | 0.00 | 0.00 | 0.00 | 83 | 1016.3 |
| 20260507041729 | 64 | 278 | 7.0 | 0.0 | 0.00 | 0.00 | 0.00 | 83 | 1016.3 |
| 20260507041229 | 64 | 278 | 7.0 | 0.0 | 0.00 | 0.00 | 0.00 | 83 | 1016.3 |
| 20260507040731 | 64 | 281 | 6.0 | 0.0 | 0.00 | 0.00 | 0.00 | 83 | 1016.3 |
| 20260507040228 | 64 | 259 | 9.0 | 0.0 | 0.00 | 0.00 | 0.00 | 83 | 1015.9 |
| 20260507035729 | 64 | 276 | 6.0 | 0.0 | 0.00 | 0.00 | 0.00 | 83 | 1015.9 |
| 20260507035229 | 64 | 270 | 8.0 | 0.0 | 0.00 | 0.00 | 0.00 | 83 | 1015.9 |
| 20260507034728 | 64 | 280 | 7.0 | 0.0 | 0.00 | 0.00 | 0.00 | 83 | 1015.6 |
| 20260507034226 | 64 | 298 | 8.0 | 0.0 | 0.00 | 0.00 | 0.00 | 83 | 1015.9 |
| 20260507033727 | 64 | 339 | 7.0 | 0.0 | 0.00 | 0.00 | 0.00 | 83 | 1015.6 |
| 20260507033226 | 64 | 284 | 7.0 | 0.0 | 0.00 | 0.00 | 0.00 | 83 | 1015.6 |
| 20260507032727 | 64 | 275 | 7.0 | 0.0 | 0.00 | 0.00 | 0.00 | 83 | 1015.6 |
| 20260507032225 | 64 | 293 | 5.0 | 0.0 | 0.00 | 0.00 | 0.00 | 83 | 1015.6 |
| 20260507031727 | 64 | 289 | 8.0 | 0.0 | 0.00 | 0.00 | 0.00 | 82 | 1015.6 |
| 20260507031226 | 64 | 258 | 7.0 | 0.0 | 0.00 | 0.00 | 0.00 | 82 | 1015.6 |
| 20260507030728 | 64 | 303 | 7.0 | 0.0 | 0.00 | 0.00 | 0.00 | 82 | 1015.6 |
| 20260507030225 | 64 | 278 | 6.0 | 0.0 | 0.00 | 0.00 | 0.00 | 82 | 1015.6 |
| 20260507025726 | 64 | 309 | 8.0 | 0.0 | 0.00 | 0.00 | 0.00 | 82 | 1015.6 |
| 20260507025224 | 64 | 258 | 6.0 | 0.0 | 0.00 | 0.00 | 0.00 | 82 | 1015.6 |
| 20260507024725 | 64 | 326 | 10.0 | 0.0 | 0.00 | 0.00 | 0.00 | 82 | 1015.6 |
| 20260507024225 | 64 | 290 | 8.0 | 0.0 | 0.00 | 0.00 | 0.00 | 82 | 1015.6 |
| 20260507023728 | 64 | 312 | 6.0 | 0.0 | 0.00 | 0.00 | 0.00 | 82 | 1015.6 |
| 20260507023225 | 65 | 286 | 8.0 | 0.0 | 0.00 | 0.00 | 0.00 | 81 | 1015.6 |
| 20260507022724 | 65 | 323 | 7.0 | 0.0 | 0.00 | 0.00 | 0.00 | 82 | 1015.2 |
| 20260507022225 | 65 | 168 | 8.0 | 0.0 | 0.00 | 0.00 | 0.00 | 82 | 1015.6 |
| 20260507021726 | 65 | 290 | 8.0 | 0.0 | 0.00 | 0.00 | 0.00 | 82 | 1015.6 |
| 20260507021223 | 65 | 316 | 10.0 | 0.0 | 0.00 | 0.00 | 0.00 | 82 | 1015.2 |
| 20260507020724 | 65 | 326 | 8.0 | 0.0 | 0.00 | 0.00 | 0.00 | 81 | 1015.2 |
| 20260507020225 | 65 | 298 | 7.0 | 0.0 | 0.00 | 0.00 | 0.00 | 81 | 1014.9 |
| 20260507015724 | 65 | 309 | 7.0 | 0.0 | 0.00 | 0.00 | 0.00 | 81 | 1014.9 |
| 20260507015223 | 65 | 255 | 9.0 | 0.0 | 0.00 | 0.00 | 0.00 | 81 | 1014.6 |
| 20260507014723 | 65 | 245 | 8.0 | 0.0 | 0.00 | 0.00 | 0.00 | 81 | 1014.6 |
| 20260507014222 | 66 | 247 | 7.0 | 0.0 | 0.00 | 0.00 | 0.00 | 80 | 1014.6 |
| 20260507013722 | 66 | 286 | 6.0 | 0.0 | 0.00 | 0.00 | 0.00 | 80 | 1014.6 |
| 20260507013222 | 66 | 295 | 6.0 | 0.0 | 0.00 | 0.00 | 0.00 | 80 | 1014.6 |
| 20260507012721 | 66 | 220 | 6.0 | 0.0 | 0.00 | 0.00 | 0.00 | 80 | 1014.6 |
| 20260507012222 | 66 | 272 | 7.0 | 0.0 | 0.00 | 0.00 | 0.00 | 80 | 1014.6 |
| 20260507011722 | 66 | 246 | 7.0 | 0.0 | 0.00 | 0.00 | 0.00 | 80 | 1014.6 |
| 20260507011222 | 67 | 314 | 7.0 | 0.0 | 0.00 | 0.00 | 0.00 | 79 | 1014.6 |
| 20260507010722 | 67 | 252 | 7.0 | 0.0 | 0.00 | 0.00 | 0.00 | 79 | 1013.9 |
| 20260507010225 | 67 | 281 | 7.0 | 0.0 | 0.00 | 0.00 | 0.00 | 79 | 1013.9 |
| 20260507005724 | 67 | 261 | 7.0 | 0.0 | 0.00 | 0.00 | 0.00 | 78 | 1013.9 |
| 20260507005223 | 68 | 342 | 8.0 | 0.0 | 0.00 | 0.00 | 0.00 | 78 | 1013.9 |
| 20260507004722 | 68 | 290 | 8.0 | 0.0 | 0.00 | 0.00 | 0.00 | 78 | 1013.9 |
| 20260507004220 | 68 | 332 | 7.0 | 0.0 | 0.00 | 0.00 | 0.00 | 78 | 1013.9 |
| 20260507003720 | 68 | 256 | 7.0 | 0.0 | 0.00 | 0.00 | 0.00 | 77 | 1013.9 |
| 20260507003222 | 69 | 226 | 9.0 | 0.0 | 0.00 | 0.00 | 0.00 | 77 | 1013.9 |
| 20260507002721 | 69 | 252 | 7.0 | 0.0 | 0.00 | 0.00 | 0.00 | 75 | 1013.9 |
| 20260507002219 | 70 | 315 | 8.0 | 0.0 | 0.00 | 0.00 | 0.00 | 75 | 1013.9 |
| 20260507001719 | 70 | 267 | 7.0 | 0.0 | 0.00 | 0.00 | 0.00 | 75 | 1013.5 |
| 20260507001221 | 71 | 147 | 9.0 | 0.0 | 0.00 | 0.00 | 0.00 | 74 | 1013.5 |
| 20260507000719 | 71 | 280 | 7.0 | 0.0 | 0.00 | 0.00 | 0.00 | 74 | 1013.5 |
| 20260507000220 | 71 | 267 | 9.0 | 0.0 | 0.00 | 0.00 | 0.00 | 74 | 1013.5 |
| 20260506235719 | 71 | 286 | 8.0 | 0.0 | 0.00 | 0.00 | 0.00 | 74 | 1013.2 |
| 20260506235218 | 72 | 266 | 7.0 | 0.0 | 0.00 | 0.00 | 0.00 | 74 | 1013.5 |
| 20260506234717 | 72 | 215 | 7.0 | 0.0 | 0.00 | 0.00 | 0.00 | 74 | 1013.2 |
| 20260506234218 | 72 | 292 | 9.0 | 0.0 | 0.00 | 0.00 | 0.00 | 73 | 1013.2 |
| 20260506233721 | 72 | 289 | 8.0 | 0.0 | 0.00 | 0.00 | 0.00 | 73 | 1013.2 |
| 20260506233218 | 73 | 256 | 8.0 | 0.0 | 0.00 | 0.00 | 0.00 | 73 | 1012.9 |
| 20260506232719 | 73 | 287 | 9.0 | 0.0 | 0.00 | 0.00 | 0.00 | 72 | 1012.9 |
| 20260506232219 | 73 | 299 | 11.0 | 0.0 | 0.00 | 0.00 | 0.00 | 71 | 1012.9 |
| 20260506231717 | 75 | 236 | 10.0 | 0.0 | 0.00 | 0.00 | 0.00 | 70 | 1012.9 |
| 20260506231217 | 75 | 284 | 8.0 | 0.0 | 0.00 | 0.00 | 0.00 | 70 | 1012.9 |
| 20260506230720 | 76 | 285 | 10.0 | 0.0 | 0.00 | 0.00 | 0.00 | 69 | 1012.9 |
| 20260506230219 | 77 | 133 | 11.0 | 0.0 | 0.00 | 0.00 | 0.00 | 68 | 1012.5 |
| 20260506225717 | 77 | 208 | 6.0 | 0.0 | 0.00 | 0.00 | 0.00 | 69 | 1012.5 |
| 20260506225218 | 77 | 125 | 10.0 | 0.0 | 0.00 | 0.00 | 0.00 | 69 | 1012.5 |
| 20260506224718 | 78 | 269 | 8.0 | 0.0 | 0.00 | 0.00 | 0.00 | 69 | 1012.5 |
| 20260506224219 | 79 | 292 | 9.0 | 0.0 | 0.00 | 0.00 | 0.00 | 69 | 1012.5 |
| 20260506223717 | 78 | 251 | 8.0 | 0.0 | 0.00 | 0.00 | 0.00 | 69 | 1012.5 |
| 20260506223219 | 79 | 290 | 7.0 | 0.0 | 0.00 | 0.00 | 0.00 | 68 | 1012.5 |
| 20260506222715 | 80 | 183 | 7.0 | 0.0 | 0.00 | 0.00 | 0.00 | 69 | 1012.2 |
| 20260506222215 | 80 | 273 | 9.0 | 0.0 | 0.00 | 0.00 | 0.00 | 69 | 1012.2 |
| 20260506221717 | 80 | 312 | 6.0 | 0.0 | 0.00 | 0.00 | 0.00 | 70 | 1012.2 |
| 20260506221216 | 80 | 241 | 8.0 | 0.0 | 0.00 | 0.00 | 0.00 | 69 | 1012.2 |
| 20260506220716 | 80 | 288 | 8.0 | 0.0 | 0.00 | 0.00 | 0.00 | 69 | 1012.2 |
| 20260506220215 | 80 | 298 | 9.0 | 0.0 | 0.00 | 0.00 | 0.00 | 70 | 1012.2 |
| 20260506215715 | 80 | 245 | 8.0 | 0.0 | 0.00 | 0.00 | 0.00 | 69 | 1011.9 |
| 20260506215215 | 81 | 350 | 8.0 | 0.0 | 0.00 | 0.00 | 0.00 | 70 | 1012.2 |
| 20260506214715 | 80 | 133 | 11.0 | 0.0 | 0.00 | 0.00 | 0.00 | 71 | 1012.2 |
| 20260506214214 | 80 | 303 | 9.0 | 0.0 | 0.00 | 0.00 | 0.00 | 70 | 1012.2 |
| 20260506213713 | 81 | 328 | 8.0 | 0.0 | 0.00 | 0.00 | 0.00 | 72 | 1012.2 |
| 20260506213215 | 80 | 293 | 10.0 | 0.0 | 0.00 | 0.00 | 0.00 | 70 | 1012.2 |
| 20260506212715 | 80 | 232 | 6.0 | 0.0 | 0.00 | 0.00 | 0.00 | 72 | 1012.2 |
| 20260506212213 | 80 | 288 | 8.0 | 0.0 | 0.00 | 0.00 | 0.00 | 73 | 1012.2 |
| 20260506211717 | 80 | 258 | 8.0 | 0.0 | 0.00 | 0.00 | 0.00 | 72 | 1012.2 |
| 20260506211214 | 80 | 279 | 8.0 | 0.0 | 0.00 | 0.00 | 0.00 | 72 | 1012.2 |
| 20260506210713 | 80 | 285 | 9.0 | 0.0 | 0.00 | 0.00 | 0.00 | 70 | 1012.2 |
| 20260506210213 | 81 | 255 | 9.0 | 0.0 | 0.00 | 0.00 | 0.00 | 71 | 1012.2 |
| 20260506205713 | 83 | 227 | 10.0 | 0.0 | 0.00 | 0.00 | 0.00 | 68 | 1012.2 |
| 20260506205212 | 84 | 186 | 5.0 | 0.0 | 0.00 | 0.00 | 0.00 | 70 | 1011.9 |
| 20260506204712 | 84 | 245 | 4.0 | 0.0 | 0.00 | 0.00 | 0.00 | 68 | 1011.9 |
| 20260506204211 | 84 | 186 | 4.0 | 0.0 | 0.00 | 0.00 | 0.00 | 67 | 1011.9 |
| 20260506203712 | 84 | 83 | 3.0 | 0.0 | 0.00 | 0.00 | 0.00 | 67 | 1011.9 |
| 20260506203213 | 84 | 208 | 4.0 | 0.0 | 0.00 | 0.00 | 0.00 | 67 | 1011.9 |
| 20260506202712 | 84 | 237 | 3.0 | 0.0 | 0.00 | 0.00 | 0.00 | 68 | 1012.2 |
| 20260506202213 | 84 | 173 | 4.0 | 0.0 | 0.00 | 0.00 | 0.00 | 67 | 1012.2 |
| 20260506201711 | 85 | 168 | 5.0 | 0.0 | 0.00 | 0.00 | 0.00 | 68 | 1012.2 |
| 20260506201214 | 85 | 133 | 7.0 | 0.0 | 0.00 | 0.00 | 0.00 | 68 | 1012.2 |
| 20260506200713 | 85 | 125 | 4.0 | 0.0 | 0.00 | 0.00 | 0.00 | 68 | 1012.2 |
| 20260506200213 | 85 | 101 | 6.0 | 0.0 | 0.00 | 0.00 | 0.00 | 71 | 1012.2 |